Princeton, MN

8:04 AM CST on December 08, 2019 (GMT -0600)
Princeton Municipal

Weather History for KPNM - May, 2019

Change the Weather History Date:

Saturday, May 25, 2019

  Actual Average Record
Temperature  
Mean Temperature 56 °F -  
Max Temperature 66 °F 67 °F 93 °F (2018)
Min Temperature 46 °F 43 °F 33 °F (2001)
Degree Days  
Heating Degree Days 9    
Growing Degree Days 6 (Base 50)    
Moisture  
Dew Point 50 °F    
Average Humidity 71    
Maximum Humidity 93    
Minimum Humidity 52    
Precipitation  
Precipitation 0.00 in - - ()
Sea Level Pressure  
Sea Level Pressure 29.85 in    
Wind  
Wind Speed 9 mph (WSW)    
Max Wind Speed 16 mph    
Max Gust Speed 24 mph    
Visibility 10 miles    
Events      
Averages and records for this station are not official NWS values.
T = Trace of Precipitation, MM = Missing Value Source: NWS Daily Summary

Daily Weather History Graph

Daily Weather History Graph

Search for Another Location

Airport or City:

Astronomy

May. 25, 2019 Rise Set
Actual Time 5:33 AM CDT 8:49 PM CDT
Civil Twilight 4:57 AM CDT 9:25 PM CDT
Nautical Twilight 4:11 AM CDT 10:12 PM CDT
Astronomical Twilight 3:13 AM CDT 11:11 PM CDT
Moon 1:47 AM CDT (5/25) 11:37 AM CDT (5/25)
Length of Visible Light 16h 27m
Length of Day
15h 15m
Waning Gibbous, 59% of the Moon is Illuminated
May 25
Waning Gibbous
May 26
Last Quarter
Jun 3
New
Jun 10
First Quarter
Jun 17
Full

Hourly Weather History & Observations

Time (CDT) Temp. Windchill Dew Point Humidity Pressure Visibility Wind Dir Wind Speed Gust Speed Precip Events Conditions
12:15 AM 64.4 °F - 57.2 °F 77% 29.68 in 10.0 mi South 9.2 mph - N/A   Clear
12:16 AM 64.4 °F - 57.2 °F 77% 29.68 in 10.0 mi South 9.2 mph - N/A   Clear
12:35 AM 62.6 °F - 57.2 °F 82% 29.69 in 10.0 mi South 9.2 mph - N/A   Clear
12:55 AM 62.6 °F - 57.2 °F 82% 29.68 in 10.0 mi South 8.1 mph - N/A   Clear
1:15 AM 62.6 °F - 57.2 °F 82% 29.67 in 10.0 mi South 8.1 mph - N/A   Clear
1:16 AM 62.6 °F - 57.2 °F 82% 29.67 in 10.0 mi South 8.1 mph - N/A   Clear
1:35 AM 62.6 °F - 57.2 °F 82% 29.67 in 10.0 mi South 9.2 mph - N/A   Clear
1:36 AM 62.6 °F - 57.2 °F 82% 29.67 in 10.0 mi South 9.2 mph - N/A   Clear
1:55 AM 62.6 °F - 57.2 °F 82% 29.67 in 10.0 mi South 8.1 mph - N/A   Clear
2:15 AM 62.6 °F - 57.2 °F 82% 29.67 in 10.0 mi South 6.9 mph - N/A   Clear
2:16 AM 62.6 °F - 57.2 °F 82% 29.67 in 10.0 mi South 6.9 mph - N/A   Clear
2:35 AM 62.6 °F - 57.2 °F 82% 29.67 in 10.0 mi South 6.9 mph - N/A   Clear
2:55 AM 62.6 °F - 55.4 °F 77% 29.68 in 10.0 mi SSW 5.8 mph - N/A   Clear
2:56 AM 62.6 °F - 55.4 °F 77% 29.68 in 10.0 mi SSW 5.8 mph - N/A   Clear
3:15 AM 62.6 °F - 55.4 °F 77% 29.68 in 10.0 mi SSW 4.6 mph - N/A   Clear
3:16 AM 62.6 °F - 55.4 °F 77% 29.68 in 10.0 mi SW 4.6 mph - N/A   Clear
3:35 AM 60.8 °F - 55.4 °F 82% 29.68 in 10.0 mi SSW 6.9 mph - N/A   Clear
3:55 AM 60.8 °F - 53.6 °F 77% 29.68 in 10.0 mi SW 5.8 mph - N/A   Clear
4:15 AM 60.8 °F - 53.6 °F 77% 29.69 in 10.0 mi SW 5.8 mph - N/A   Clear
4:16 AM 60.8 °F - 53.6 °F 77% 29.69 in 10.0 mi SSW 6.9 mph - N/A   Clear
4:35 AM 59.0 °F - 51.8 °F 77% 29.70 in 10.0 mi SW 8.1 mph - N/A   Clear
4:55 AM 59.0 °F - 51.8 °F 77% 29.71 in 10.0 mi WSW 8.1 mph - N/A   Clear
4:56 AM 59.0 °F - 51.8 °F 77% 29.71 in 10.0 mi WSW 6.9 mph - N/A   Clear
5:15 AM 57.2 °F - 50.0 °F 77% 29.71 in 10.0 mi WSW 6.9 mph - N/A   Clear
5:35 AM 57.2 °F - 48.2 °F 72% 29.72 in 10.0 mi WSW 5.8 mph - N/A   Clear
5:55 AM 55.4 °F - 48.2 °F 77% 29.73 in 10.0 mi WSW 8.1 mph - N/A   Clear
5:56 AM 55.4 °F - 48.2 °F 77% 29.73 in 10.0 mi WSW 6.9 mph - N/A   Clear
6:15 AM 55.4 °F - 46.4 °F 72% 29.74 in 10.0 mi WSW 10.4 mph - N/A   Clear
6:16 AM 55.4 °F - 46.4 °F 72% 29.74 in 10.0 mi WSW 10.4 mph - N/A   Clear
6:35 AM 57.2 °F - 46.4 °F 67% 29.74 in 10.0 mi WSW 10.4 mph - N/A   Clear
6:55 AM 57.2 °F - 46.4 °F 67% 29.76 in 10.0 mi WSW 9.2 mph 16.1 mph N/A   Clear
6:56 AM 57.2 °F - 46.4 °F 67% 29.76 in 10.0 mi WSW 8.1 mph 16.1 mph N/A   Clear
7:15 AM 57.2 °F - 46.4 °F 67% 29.77 in 10.0 mi WSW 11.5 mph 18.4 mph N/A   Clear
7:35 AM 57.2 °F - 48.2 °F 72% 29.78 in 10.0 mi West 10.4 mph 18.4 mph N/A   Clear
7:36 AM 57.2 °F - 48.2 °F 72% 29.78 in 10.0 mi West 10.4 mph 18.4 mph N/A   Clear
7:55 AM 57.2 °F - 48.2 °F 72% 29.78 in 10.0 mi West 15.0 mph 20.7 mph N/A   Clear
7:56 AM 57.2 °F - 48.2 °F 72% 29.78 in 10.0 mi West 16.1 mph 20.7 mph N/A   Clear
8:15 AM 57.2 °F - 48.2 °F 72% 29.79 in 10.0 mi West 16.1 mph 24.2 mph N/A   Clear
8:35 AM 57.2 °F - 48.2 °F 72% 29.80 in 10.0 mi West 13.8 mph 19.6 mph N/A   Scattered Clouds
8:36 AM 57.2 °F - 48.2 °F 72% 29.80 in 10.0 mi West 13.8 mph 19.6 mph N/A   Scattered Clouds
8:55 AM 57.2 °F - 50.0 °F 77% 29.81 in 10.0 mi West 12.7 mph 19.6 mph N/A   Mostly Cloudy
8:56 AM 57.2 °F - 50.0 °F 77% 29.81 in 10.0 mi West 13.8 mph 19.6 mph N/A   Mostly Cloudy
9:15 AM 59.0 °F - 50.0 °F 72% 29.81 in 10.0 mi West 15.0 mph 20.7 mph N/A   Overcast
9:16 AM 59.0 °F - 50.0 °F 72% 29.81 in 10.0 mi West 15.0 mph 19.6 mph N/A   Overcast
9:35 AM 59.0 °F - 50.0 °F 72% 29.82 in 10.0 mi West 15.0 mph 21.9 mph N/A   Overcast
9:36 AM 59.0 °F - 50.0 °F 72% 29.82 in 10.0 mi West 16.1 mph 21.9 mph N/A   Overcast
9:55 AM 60.8 °F - 50.0 °F 68% 29.82 in 10.0 mi West 10.4 mph 17.3 mph N/A   Overcast
10:15 AM 60.8 °F - 50.0 °F 68% 29.83 in 10.0 mi West 15.0 mph 21.9 mph N/A   Overcast
10:16 AM 60.8 °F - 50.0 °F 68% 29.83 in 10.0 mi West 15.0 mph 21.9 mph N/A   Overcast
10:35 AM 60.8 °F - 50.0 °F 68% 29.84 in 10.0 mi West 11.5 mph 19.6 mph N/A   Overcast
10:36 AM 60.8 °F - 50.0 °F 68% 29.84 in 10.0 mi West 10.4 mph 19.6 mph N/A   Overcast
10:55 AM 60.8 °F - 51.8 °F 72% 29.84 in 10.0 mi West 12.7 mph 17.3 mph N/A   Overcast
11:15 AM 60.8 °F - 51.8 °F 72% 29.85 in 10.0 mi West 8.1 mph - N/A   Overcast
11:35 AM 62.6 °F - 51.8 °F 68% 29.85 in 10.0 mi West 10.4 mph 16.1 mph N/A   Overcast
11:55 AM 60.8 °F - 51.8 °F 72% 29.86 in 10.0 mi West 10.4 mph - N/A   Overcast
11:56 AM 60.8 °F - 51.8 °F 72% 29.86 in 10.0 mi West 9.2 mph - N/A   Overcast
12:15 PM 62.6 °F - 50.0 °F 63% 29.87 in 10.0 mi West 10.4 mph - N/A   Overcast
12:16 PM 62.6 °F - 50.0 °F 63% 29.87 in 10.0 mi West 11.5 mph - N/A   Overcast
12:35 PM 62.6 °F - 51.8 °F 68% 29.87 in 10.0 mi West 9.2 mph 16.1 mph N/A   Overcast
12:55 PM 62.6 °F - 51.8 °F 68% 29.88 in 10.0 mi WSW 11.5 mph 16.1 mph N/A   Overcast
1:15 PM 64.4 °F - 51.8 °F 64% 29.88 in 10.0 mi WSW 12.7 mph 17.3 mph N/A   Overcast
1:16 PM 64.4 °F - 51.8 °F 64% 29.88 in 10.0 mi WSW 12.7 mph 17.3 mph N/A   Overcast
1:35 PM 62.6 °F - 51.8 °F 68% 29.89 in 10.0 mi WSW 10.4 mph - N/A   Overcast
1:55 PM 62.6 °F - 51.8 °F 68% 29.89 in 10.0 mi WSW 9.2 mph - N/A   Overcast
1:56 PM 62.6 °F - 51.8 °F 68% 29.89 in 10.0 mi WSW 9.2 mph - N/A   Overcast
2:15 PM 62.6 °F - 51.8 °F 68% 29.90 in 10.0 mi WSW 8.1 mph - N/A   Overcast
2:35 PM 64.4 °F - 50.0 °F 59% 29.90 in 10.0 mi WSW 13.8 mph 17.3 mph N/A   Overcast
2:55 PM 62.6 °F - 48.2 °F 59% 29.91 in 10.0 mi West 10.4 mph 17.3 mph N/A   Overcast
2:56 PM 62.6 °F - 48.2 °F 59% 29.91 in 10.0 mi West 10.4 mph 17.3 mph N/A   Overcast
3:15 PM 62.6 °F - 50.0 °F 63% 29.92 in 10.0 mi West 12.7 mph - N/A   Overcast
3:35 PM 62.6 °F - 50.0 °F 63% 29.92 in 10.0 mi West 10.4 mph 17.3 mph N/A   Overcast
3:55 PM 64.4 °F - 48.2 °F 56% 29.92 in 10.0 mi WSW 10.4 mph - N/A   Overcast
3:56 PM 64.4 °F - 48.2 °F 56% 29.92 in 10.0 mi WSW 10.4 mph - N/A   Overcast
4:15 PM 64.4 °F - 48.2 °F 56% 29.93 in 10.0 mi West 6.9 mph - N/A   Overcast
4:16 PM 64.4 °F - 50.0 °F 59% 29.93 in 10.0 mi West 8.1 mph - N/A   Overcast
4:35 PM 64.4 °F - 50.0 °F 59% 29.93 in 10.0 mi West 6.9 mph - N/A   Mostly Cloudy
4:55 PM 64.4 °F - 50.0 °F 59% 29.93 in 10.0 mi West 9.2 mph - N/A   Mostly Cloudy
5:15 PM 66.2 °F - 50.0 °F 56% 29.93 in 10.0 mi West 10.4 mph 16.1 mph N/A   Overcast
5:16 PM 66.2 °F - 50.0 °F 56% 29.93 in 10.0 mi West 12.7 mph 17.3 mph N/A   Overcast
5:35 PM 66.2 °F - 48.2 °F 52% 29.94 in 10.0 mi West 9.2 mph 16.1 mph N/A   Mostly Cloudy
5:36 PM 66.2 °F - 48.2 °F 52% 29.94 in 10.0 mi West 9.2 mph 16.1 mph N/A   Mostly Cloudy
5:55 PM 66.2 °F - 50.0 °F 56% 29.94 in 10.0 mi WNW 11.5 mph 17.3 mph N/A   Scattered Clouds
6:15 PM 66.2 °F - 50.0 °F 56% 29.95 in 10.0 mi West 9.2 mph - N/A   Scattered Clouds
6:35 PM 66.2 °F - 50.0 °F 56% 29.95 in 10.0 mi WSW 11.5 mph - N/A   Mostly Cloudy
6:55 PM 64.4 °F - 50.0 °F 59% 29.95 in 10.0 mi WSW 6.9 mph - N/A   Scattered Clouds
6:56 PM 64.4 °F - 50.0 °F 59% 29.96 in 10.0 mi West 6.9 mph - N/A   Scattered Clouds
7:15 PM 62.6 °F - 50.0 °F 63% 29.97 in 10.0 mi West 4.6 mph - N/A   Mostly Cloudy
7:16 PM 62.6 °F - 50.0 °F 63% 29.97 in 10.0 mi West 4.6 mph - N/A   Mostly Cloudy
7:35 PM 62.6 °F - 51.8 °F 68% 29.97 in 10.0 mi West 8.1 mph - N/A   Overcast
7:55 PM 62.6 °F - 51.8 °F 68% 29.97 in 10.0 mi West 5.8 mph - N/A   Overcast
7:56 PM 62.6 °F - 51.8 °F 68% 29.97 in 10.0 mi West 5.8 mph - N/A   Overcast
8:15 PM 60.8 °F - 50.0 °F 68% 29.97 in 10.0 mi West 6.9 mph - N/A   Overcast
8:16 PM 60.8 °F - 50.0 °F 68% 29.97 in 10.0 mi WNW 6.9 mph - N/A   Overcast
8:35 PM 60.8 °F - 48.2 °F 63% 29.97 in 10.0 mi WNW 5.8 mph - N/A   Mostly Cloudy
8:36 PM 60.8 °F - 48.2 °F 63% 29.97 in 10.0 mi WNW 4.6 mph - N/A   Mostly Cloudy
8:55 PM 57.2 °F - 48.2 °F 72% 29.96 in 10.0 mi WNW 3.5 mph - N/A   Mostly Cloudy
8:56 PM 57.2 °F - 48.2 °F 72% 29.96 in 10.0 mi WNW 3.5 mph - N/A   Mostly Cloudy
9:15 PM 55.4 °F - 48.2 °F 77% 29.96 in 10.0 mi Calm Calm - N/A   Scattered Clouds
9:35 PM 55.4 °F - 48.2 °F 77% 29.97 in 10.0 mi Calm Calm - N/A   Clear
9:36 PM 55.4 °F - 48.2 °F 77% 29.97 in 10.0 mi Calm Calm - N/A   Clear
9:55 PM 53.6 °F - 48.2 °F 82% 29.98 in 10.0 mi Calm Calm - N/A   Clear
9:56 PM 53.6 °F - 48.2 °F 82% 29.98 in 10.0 mi Calm Calm - N/A   Clear
10:15 PM 51.8 °F - 46.4 °F 82% 30.01 in 10.0 mi Calm Calm - N/A   Clear
10:35 PM 51.8 °F - 46.4 °F 82% 30.03 in 10.0 mi Calm Calm - N/A   Clear
10:55 PM 48.2 °F - 44.6 °F 87% 30.03 in 10.0 mi Calm Calm - N/A   Clear
11:15 PM 46.4 °F 45.2 °F 44.6 °F 93% 30.02 in 10.0 mi NW 3.5 mph - N/A   Clear
11:35 PM 48.2 °F - 46.4 °F 93% 30.02 in 10.0 mi Calm Calm - N/A   Clear
11:36 PM 48.2 °F - 46.4 °F 93% 30.02 in 10.0 mi Calm Calm - N/A   Clear
11:55 PM 46.4 °F - 44.6 °F 93% 30.04 in 10.0 mi Calm Calm - N/A   Clear
11:56 PM 46.4 °F - 44.6 °F 93% 30.04 in 10.0 mi Calm Calm - N/A   Clear